Terminal Aerodrome Forecast
Issued by NWS

Home | Current Version | Previous Version | Graphics & Text | Print | Product List | Glossary Off
Versions: 1 2 3 4 5 6 7 8 9 10 11 12 13 14

000
FTUS43 KDDC 242320
TAFGCK
TAF
KGCK 242320Z 2500/2524 10008KT P6SM SCT250
     FM251100 32012KT P6SM SCT250
     FM251900 36016G24KT P6SM BKN080=

USA.gov is the U.S. government's official web portal to all federal, state and local government web resources and services.